Lubbock, TX

4:44 AM CST on November 15, 2019 (GMT -0600)
Lubbock International

Weather History for KLBB - August, 2019

Change the Weather History Date:

Tuesday, August 27, 2019

  Actual Average Record
Temperature  
Mean Temperature 76 °F 78 °F  
Max Temperature 82 °F 90 °F 100 °F (1931)
Min Temperature 70 °F 65 °F 53 °F (1926)
Degree Days  
Heating Degree Days 0 0  
Month to date heating degree days 0 0  
Since 1 June heating degree days 0 2  
Since 1 July heating degree days 0 0  
Cooling Degree Days 12 13  
Month to date cooling degree days 551 385  
Year to date cooling degree days 1658 1478  
Since 1 June cooling degree days 1448 1232  
Growing Degree Days 26 (Base 50)    
Moisture  
Dew Point 65 °F    
Average Humidity 69    
Maximum Humidity 87    
Minimum Humidity 51    
Precipitation  
Precipitation T in 0.06 in 2.72 in (1972)
Month to date precipitation 1.94 1.64  
Year to date precipitation 15.39 12.80  
Snow  
Snow 0.00 in 0.00 in 0.00 in (2002)
Month to date snowfall 0.0 0.0  
Since 1 June snowfall 0.0 0.0  
Since 1 July snowfall 0.0 0.0  
Snow Depth 0.00 in    
Sea Level Pressure  
Sea Level Pressure 29.89 in    
Wind  
Wind Speed 15 mph ()    
Max Wind Speed 30 mph    
Max Gust Speed 38 mph    
Visibility 9.9 miles    
Events Rain    
T = Trace of Precipitation, MM = Missing Value Source: Averaged Metar Reports

Daily Weather History Graph

Daily Weather History Graph

Search for Another Location

Airport or City:

Astronomy

Aug. 27, 2019 Rise Set
Actual Time 7:17 AM CDT 8:19 PM CDT
Civil Twilight 6:51 AM CDT 8:45 PM CDT
Nautical Twilight 6:21 AM CDT 9:15 PM CDT
Astronomical Twilight 5:50 AM CDT 9:46 PM CDT
Moon 3:54 AM CDT (8/27) 6:32 PM CDT (8/27)
Length of Visible Light 13h 53m
Length of Day
13h 01m
Waning Crescent, 11% of the Moon is Illuminated
Aug 27
Waning Crescent
Aug 30
New
Sep 5
First Quarter
Sep 13
Full
Sep 21
Last Quarter

Hourly Weather History & Observations

Time (CDT) Temp. Heat Index Dew Point Humidity Pressure Visibility Wind Dir Wind Speed Gust Speed Precip Events Conditions
12:53 AM 82.0 °F 84.5 °F 66.9 °F 60% 29.68 in 10.0 mi ENE 13.8 mph - N/A   Partly Cloudy
1:53 AM 80.1 °F 82.3 °F 66.9 °F 64% 29.69 in 10.0 mi NE 15.0 mph 25.3 mph N/A   Partly Cloudy
2:53 AM 78.1 °F - 70.0 °F 76% 29.71 in 10.0 mi ENE 13.8 mph 24.2 mph N/A   Partly Cloudy
3:53 AM 75.0 °F - 69.1 °F 82% 29.71 in 10.0 mi NE 19.6 mph 29.9 mph N/A   Partly Cloudy
4:53 AM 73.9 °F - 69.1 °F 85% 29.73 in 10.0 mi NE 19.6 mph 26.5 mph N/A   Mostly Cloudy
5:53 AM 73.9 °F - 68.0 °F 82% 29.74 in 10.0 mi NE 18.4 mph 28.8 mph N/A   Overcast
6:53 AM 73.0 °F - 68.0 °F 84% 29.78 in 10.0 mi NE 21.9 mph 33.4 mph N/A   Overcast
7:33 AM 72.0 °F - 68.0 °F 87% 30.00 in 10.0 mi NE 26.5 mph 38.0 mph N/A   Overcast
7:53 AM 72.0 °F - 66.9 °F 84% 29.83 in 9.0 mi ENE 26.5 mph 35.7 mph N/A   Overcast
8:53 AM 71.1 °F - 64.0 °F 78% 29.87 in 10.0 mi ENE 24.2 mph 35.7 mph N/A   Overcast
9:16 AM 71.1 °F - 63.0 °F 75% 30.04 in 10.0 mi ENE 21.9 mph 31.1 mph N/A   Overcast
9:53 AM 70.0 °F - 63.0 °F 78% 29.91 in 10.0 mi East 18.4 mph 25.3 mph N/A   Overcast
10:53 AM 72.0 °F - 63.0 °F 73% 29.93 in 10.0 mi East 20.7 mph 26.5 mph N/A   Overcast
11:53 AM 72.0 °F - 62.1 °F 71% 29.95 in 10.0 mi East 16.1 mph 21.9 mph N/A   Overcast
12:53 PM 75.0 °F - 64.0 °F 69% 29.94 in 10.0 mi East 12.7 mph - N/A   Overcast
1:44 PM 79.0 °F - 64.0 °F 60% 30.07 in 10.0 mi ESE 19.6 mph 27.6 mph N/A   Mostly Cloudy
1:53 PM 80.1 °F 81.7 °F 64.0 °F 58% 29.91 in 9.0 mi ESE 20.7 mph - N/A   Mostly Cloudy
2:23 PM 78.1 °F - 64.0 °F 62% 30.07 in 10.0 mi ESE 19.6 mph - N/A   Mostly Cloudy
2:53 PM 78.1 °F - 64.0 °F 62% 29.93 in 10.0 mi ESE 15.0 mph - 0.00 in Rain Light Rain
3:13 PM 78.1 °F - 64.0 °F 62% 30.09 in 10.0 mi ESE 13.8 mph - 0.00 in   Overcast
3:53 PM 80.1 °F 81.7 °F 64.0 °F 58% 29.92 in 10.0 mi ESE 12.7 mph 20.7 mph 0.00 in   Overcast
4:53 PM 79.0 °F - 64.0 °F 60% 29.93 in 10.0 mi East 11.5 mph - N/A   Mostly Cloudy
5:53 PM 82.0 °F 83.1 °F 63.0 °F 52% 29.90 in 10.0 mi ESE 13.8 mph - N/A   Mostly Cloudy
6:53 PM 82.0 °F 83.1 °F 63.0 °F 52% 29.89 in 10.0 mi ESE 13.8 mph - N/A   Mostly Cloudy
7:53 PM 80.1 °F 81.7 °F 64.0 °F 58% 29.91 in 10.0 mi East 10.4 mph - N/A   Mostly Cloudy
8:53 PM 79.0 °F - 64.0 °F 60% 29.94 in 10.0 mi ESE 12.7 mph - N/A   Overcast
9:53 PM 78.1 °F - 63.0 °F 60% 29.97 in 10.0 mi East 12.7 mph - N/A   Overcast
11:53 PM 75.0 °F - 63.0 °F 66% 30.01 in 10.0 mi East 11.5 mph - N/A   Mostly Cloudy